Regional Weather Roundup
Issued by NWS

Home | Current Version | Previous Version | Graphics & Text | Print | Product List | Glossary On
Versions: 1 2 3 4 5 6 7 8 9 10 11 12 13 14 15 16 17 18 19 20 21 22 23 24 25 26 27 28 29 30 31 32 33 34 35 36 37 38 39 40 41 42 43 44 45 46 47 48 49 50
000
ASUS45 KTFX 100910
RWRMT
MONTANA REGIONAL WEATHER ROUNDUP
NATIONAL WEATHER SERVICE GREAT FALLS MT
200 AM MST SAT DEC 10 2016

NOTE: "FAIR" INDICATES FEW OR NO CLOUDS BELOW 12000 FEET WITH NO
SIGNIFICANT WEATHER AND/OR OBSTRUCTIONS TO VISIBILITY.

MTZ001>007-043-101000-
WEST OF THE DIVIDE

CITY           SKY/WX    TMP DP  RH WIND       PRES   REMARKS
KALISPELL      LGT SNOW  10   7  87 CALM      29.93F VSB 1
MISSOULA       MOCLDY    15  14  95 CALM      29.92F
BUTTE          LGT SNOW  20  17  88 CALM      29.80F FOG
MULLAN PASS    LGT SNOW  21  19  92 VRB6      29.70F FOG     WCI  13
ANACONDA         N/A     25  19  80 SE8       29.80F WCI  16
DEER LODGE       N/A     14  10  85 CALM      29.84F
EUREKA           N/A      7   1  78 CALM      30.00F
HAMILTON         N/A     16  12  86 CALM      29.88F
LIBBY            N/A     12   9  85 CALM      29.95F
PLAINS           N/A     15   8  73 CALM      29.96
RONAN            N/A     13   8  80 CALM      29.96S
$$

MTZ008-052>055-101000-
SOUTHWEST MONTANA

CITY           SKY/WX    TMP DP  RH WIND       PRES   REMARKS
BOZEMAN        CLOUDY    12   7  80 CALM      29.89F
DILLON         CLOUDY    15  10  80 CALM      29.82F
W YELLOWSTONE  LGT SNOW  25  23  93 S3        29.86F
ENNIS          CLOUDY    32  25  74 S14       29.84F WCI  22
THREE FORKS      N/A     11 -26  17 CALM      29.90F
$$

MTZ009-010-012-014-046-048-049-054-101000-
EAST SLOPES AND CENTRAL MONTANA

CITY           SKY/WX    TMP DP  RH WIND       PRES   REMARKS
CUT BANK       LGT SNOW  -1  -4  87 SE8       29.88F FOG     WCI -15
GREAT FALLS    CLOUDY     1  -4  79 CALM      29.90F
MALMSTROM AFB  FLURRIES   1   0  92 NE5       29.93F
HELENA         CLOUDY     7   1  76 CALM      29.92F
AUGUSTA        MOCLDY    -4  -8  85 S3        29.81F
BOWMANS CRNR   MOCLDY    -5  -8  84 N2        29.81F
CHOTEAU          N/A      0  -6  78 MISG      29.89F
CONRAD           N/A      1  -2  88 NE5       29.93F
FAIRFIELD      CLOUDY    -1  -6  82 E2        29.87F
POWER          CLOUDY     1  -3  85 E3        29.89F
RAYNESFORD     CLOUDY     4  -1  81 E13G21    29.87F WCI -13
ULM            MOCLDY     0  -4  82 N8        29.92F WCI -15
$$

MTZ011-013-016-021-045-047-050-051-101000-
NORTH CENTRAL MONTANA

CITY           SKY/WX    TMP DP  RH WIND       PRES   REMARKS
HAVRE          CLOUDY     2  -2  83 E10       30.05F WCI -14
LEWISTOWN      CLOUDY     6   0  76 E8        29.87F WCI  -7
N BAR RANCH    CLOUDY     5   0  78 E5        29.89F
CHINOOK          N/A      1  -2  85 E17       30.08F WCI -19
DENTON         FLURRIES   5   2  88 MISG      29.90F
FORT BENTON      N/A      9   1  72 N8        30.01F WCI  -4
GEYSER         FLURRIES   3   0  88 NW2       29.89F
GRASS RANGE    CLOUDY     4   1  90 W2        29.90F
JUDITH GAP     MOCLDY     4   0  84 S14       29.85F WCI -13
ROY            FLURRIES   4   2  90 MISG      29.93F
STANFORD       MOCLDY     3   0  88 NE1       29.85F
WINIFRED       FLURRIES   4   2  91 MISG      29.93F
$$

MTZ017>020-022>027-061-062-101000-
NORTHEAST MONTANA

CITY           SKY/WX    TMP DP  RH WIND       PRES   REMARKS
GLASGOW        CLOUDY    -5 -10  79 E15       30.20F WCI -26
JORDAN           N/A      2  -2  83 E9        30.13F WCI -13
SIDNEY         CLOUDY   -12 -17  78 NE5       30.34F
WOLF POINT     CLOUDY    -6 -13  71 E13       30.31F WCI -25
PLENTYWOOD       N/A    -15 -18  84 E5        30.31S
POPLAR           N/A     -9 -15  77 E8        30.31F WCI -26
SCOBEY           N/A     -8 -19  58 SE8       30.22F WCI -24
$$

MTZ028>42-056>058-101000-
SOUTHCENTRAL AND SOUTHEAST MONTANA

CITY           SKY/WX    TMP DP  RH WIND       PRES   REMARKS
BAKER          CLOUDY    -2  -7  79 SE14      30.16F WCI -21
BILLINGS       LGT SNOW   6   3  87 CALM      29.98F FOG
LIVINGSTON     FLURRIES   9   3  77 CALM      29.88F
MILES CITY     CLOUDY     6  -1  73 E9        30.14F WCI  -8
BIG TIMBER     CLOUDY     7   3  85 CALM      29.92F
EKALAKA          N/A      1  -7  69 SE18      30.00F WCI -20
FORSYTH          N/A      7   1  78 E8        30.10F WCI  -6
HARLOWTON      FLURRIES   5   1  84 E1        29.90F
LAUREL           N/A      7  -2  66 MISG      29.96F
$$

REGIONAL REPORTS...DAKOTAS

CITY           SKY/WX    TMP DP  RH WIND       PRES   REMARKS
WILLISTON      CLOUDY   -15 -20  78 N5        30.37F
MINOT          CLOUDY   -16 -20  82 CALM      30.42F
DICKINSON      CLOUDY   -10 -16  74 E6        30.26F WCI -23
BEACH          MOCLDY    -4  -9  77 SE13      30.25F WCI -23
CROSBY           N/A    -18 -24  76 CALM      30.39F
TIOGA            N/A    -20 -26  76 SE6       30.35F WCI -36
WATFORD CITY   MOCLDY   -13 -20  70 E7        30.35F WCI -29
BISMARCK       CLOUDY   -14 -19  79 E3        30.47F
GRAND FORKS    CLOUDY    -3  -9  75 NW6       30.54F WCI -15
FARGO          CLOUDY    -7 -13  75 CALM      30.54F
BUFFALO SD       N/A     -1  -6  79 SE10      30.10F WCI -17
RAPID CITY     LGT SNOW   3  -2  79 SE16      30.16F WCI -16
$$

REGIONAL REPORTS...WYOMING/IDAHO/WASHINGTON

CITY           SKY/WX    TMP DP  RH WIND       PRES   REMARKS
GILLETTE       CLOUDY     4   0  83 S20G26    29.94F WCI -17
SHERIDAN       CLOUDY     7   2  80 NW6       29.96S WCI  -3
BUFFALO WY     CLOUDY     9   0  67 S10       29.88F WCI  -5
CODY           CLOUDY     7   2  80 S5        29.89F
YELLOWSTONE LA   N/A     26  24  92 VRB5      29.85F
IDAHO FALLS    FRZ RAIN  28  25  88 CALM      29.93F FOG
SALMON         CLOUDY    19  18  93 CALM      29.91F
BOISE          CLOUDY    32  31  96 W5        29.93F FOG
SPOKANE        LGT SNOW  19  16  88 NE9       29.84F FOG     WCI   8
$$

REGIONAL REPORTS...ALBERTA

CITY           SKY/WX    TMP DP  RH WIND       PRES   REMARKS
EDMONTON       CLOUDY   -15 -24  64 SE2       30.13F
CALGARY        CRYSTALS  -8 -13  77 S10       29.91F WCI -26
LETHBRIDGE     FLURRIES   1  -2  85 SE7       29.98F WCI -11
MEDICINE HAT   FLURRIES  -8 -11  84 N3        30.11F
WATERTON GATE    N/A     -6 -11  77 SE3         N/A
MILK RIVER       N/A      3   0  85 S10         N/A  WCI -12
$$

REGIONAL REPORTS...SASKATCHEWAN

CITY           SKY/WX    TMP DP  RH WIND       PRES   REMARKS
SWIFT CURRENT  CLOUDY    -2  -6  84 SE16      30.11F WCI -23
REGINA         MOCLDY   -13 -18  77 SE8       30.35F WCI -30
SASKATOON      CRYSTALS -11 -17  77 S5        30.36F
CYPRESS HILLS    N/A     -8 -13  77 SE8         N/A  WCI -23
VAL MARIE        N/A     -4  -9  77 E14         N/A  WCI -24
ASSINIBOIA       N/A    -15 -20  76 S5          N/A
$$



USA.gov is the U.S. government's official web portal to all federal, state and local government web resources and services.